Flight Track Log - Related Links

Times and Time Zones

All times are in EDT time to prevent confusion due to time zone crossing. See the BER7688 flight status page for this flight to view local times or setup timezone preferences in your user account.

Time Position Orientation Groundspeed Altitude Reporting Facility
EDT Latitude Longitude Course Direction KTS MPH feet Rate Location/Type
Wed 09:07:00 AM 40.2374 1.4069 304° West  Level Estimated
Wed 09:08:00 AM 40.2939 1.2947 303° West  Level Estimated
Wed 09:09:00 AM 40.3502 1.1823 303° West  Level Estimated
Wed 09:10:00 AM 40.4064 1.0697 303° West  Level Estimated
Wed 09:11:00 AM 40.4626 0.9569 303° West  Level Estimated
Wed 09:12:00 AM 40.5186 0.8440 303° West  Level Estimated
Wed 09:13:00 AM 40.5745 0.7308 303° West  Level Estimated
Wed 09:14:00 AM 40.6302 0.6175 303° West  Level Estimated
Wed 09:15:00 AM 40.6859 0.5040 303° West  Level Estimated
Wed 09:16:00 AM 40.7415 0.3903 303° West  Level Estimated
Wed 09:17:00 AM 40.7970 0.2764 303° West  Level Estimated
Wed 09:18:00 AM 40.8523 0.1623 303° West  Level Estimated
Wed 09:19:00 AM 40.9076 0.0480 303° West  Level Estimated
Wed 09:20:00 AM 40.9627 -0.0665 303° West  Level Estimated
Wed 09:21:00 AM 41.0177 -0.1812 302° West  Level Estimated
Wed 09:22:00 AM 41.0726 -0.2960 302° West  Level Estimated
Wed 09:23:00 AM 41.1273 -0.4111 302° West  Level Estimated
Wed 09:24:00 AM 41.1820 -0.5263 302° West  Level Estimated
Wed 09:25:00 AM 41.2366 -0.6417 302° West  Level Estimated
Wed 09:26:00 AM 41.2910 -0.7574 302° West  Level Estimated
Wed 09:27:00 AM 41.3453 -0.8732 302° West  Level Estimated
Wed 09:28:00 AM 41.3995 -0.9892 302° West  Level Estimated
Wed 09:29:00 AM 41.4536 -1.1054 302° West  Level Estimated
Wed 09:30:00 AM 41.5076 -1.2218 302° West  Level Estimated
Wed 09:31:00 AM 41.5614 -1.3384 302° West  Level Estimated
Wed 09:32:00 AM 41.6152 -1.4552 302° West  Level Estimated
Wed 09:33:00 AM 41.6688 -1.5721 302° West  Level Estimated
Wed 09:34:00 AM 41.7223 -1.6893 301° West  Level Estimated
Wed 09:35:00 AM 41.7757 -1.8067 301° West  Level Estimated
Wed 09:36:00 AM 41.8289 -1.9243 301° West  Level Estimated
Wed 09:37:00 AM 41.8821 -2.0420 301° West  Level Estimated
Wed 09:38:00 AM 41.9351 -2.1600 301° West  Level Estimated
Wed 09:39:00 AM 41.9880 -2.2781 301° West  Level Estimated
Wed 09:40:00 AM 42.0408 -2.3965 301° West  Level Estimated
Wed 09:41:00 AM 42.0934 -2.5150 301° West  Level Estimated
Wed 09:42:00 AM 42.1459 -2.6338 301° West  Level Estimated
Wed 09:43:00 AM 42.1983 -2.7527 301° West  Level Estimated
Wed 09:44:00 AM 42.2506 -2.8719 301° West  Level Estimated
Wed 09:45:00 AM 42.3028 -2.9912 301° West  Level Estimated
Wed 09:46:00 AM 42.3548 -3.1107 301° West  Level Estimated
Wed 09:47:00 AM 42.4067 -3.2305 300° West  Level Estimated
Wed 09:48:00 AM 42.4585 -3.3504 300° West  Level Estimated
Wed 09:49:00 AM 42.5102 -3.4705 300° West  Level Estimated
Wed 09:50:00 AM 42.5617 -3.5909 300° West  Level Estimated
Wed 09:51:00 AM 42.6131 -3.7114 300° West  Level Estimated
Wed 09:52:00 AM 42.6644 -3.8321 300° West  Level Estimated
Wed 09:53:00 AM 42.7156 -3.9530 300° West  Level Estimated
Wed 09:54:00 AM 42.7666 -4.0741 300° West  Level Estimated
Wed 09:55:00 AM 42.8175 -4.1954 300° West  Level Estimated
Wed 09:56:00 AM 42.8683 -4.3170 300° West  Level Estimated
Wed 09:57:00 AM 42.9189 -4.4387 300° West  Level Estimated
Wed 09:58:00 AM 42.9695 -4.5606 300° West  Level Estimated
Wed 09:59:00 AM 43.0198 -4.6827 299° West  Level Estimated
Wed 10:00:00 AM 43.0701 -4.8050 299° West  Level Estimated
Wed 10:01:00 AM 43.1202 -4.9276 299° West  Level Estimated
Wed 10:02:00 AM 43.1702 -5.0503 299° West  Level Estimated
Wed 10:03:00 AM 43.2201 -5.1732 299° West  Level Estimated
Wed 10:04:00 AM 43.2698 -5.2963 299° West  Level Estimated
Wed 10:05:00 AM 43.3194 -5.4197 299° West  Level Estimated
Wed 10:06:00 AM 43.3689 -5.5432 299° West  Level Estimated
Wed 10:07:00 AM 43.4182 -5.6669 299° West  Level Estimated
Wed 10:08:00 AM 43.4674 -5.7909 299° West  Level Estimated
Wed 10:09:00 AM 43.5165 -5.9150 299° West  Level Estimated
Wed 10:10:00 AM 43.5636 -6.0346 299° West  Level Estimated
Wed 10:11:00 AM 43.5636 -6.0346 206° Southwest  Level Estimated
Wed 10:12:00 AM 43.5636 -6.0346 206° Southwest  Level Estimated
Wed 10:13:00 AM 43.5636 -6.0346 206° Southwest  Level Estimated
Wed 10:14:00 AM 43.5636 -6.0346 206° Southwest  Level Estimated
Wed 10:15:00 AM 43.5636 -6.0346 206° Southwest  Level Estimated
Wed 10:16:00 AM 43.5636 -6.0346 206° Southwest  Level Estimated
Wed 10:17:00 AM 43.5636 -6.0346 206° Southwest  Level Estimated
Wed 10:18:00 AM 43.5636 -6.0346 206° Southwest  Level Estimated
Wed 10:19:00 AM 43.5636 -6.0346 206° Southwest  Level Estimated
Wed 10:20:00 AM 43.5636 -6.0346 206° Southwest  Level Estimated
Wed 10:21:00 AM 43.5636 -6.0346 206° Southwest  Level Estimated
Wed 10:22:00 AM 43.5636 -6.0346 206° Southwest  Level Estimated
Wed 10:23:00 AM 43.5636 -6.0346 206° Southwest  Level Estimated
Wed 10:24:00 AM 43.5636 -6.0346 206° Southwest  Level Estimated
Wed 10:25:00 AM 43.5636 -6.0346 206° Southwest  Level Estimated

Login

Don't have an account? Register now (free) for customized features, flight alerts, and more!